| time (UTC) | temp F | wind direction | speed MPH | gust MPH | rain 1hr in | rain 24hr in | rain mn in | humidity % | barometer mb |
| 20260503041051 | 49 | 195 | 4.0 | 8.0 | 0.00 | 3.23 | 0.00 | 83 | 1025.5 |
| 20260503040534 | 49 | 179 | 4.0 | 11.0 | 0.00 | 4.33 | 0.00 | 83 | 1025.5 |
| 20260503040041 | 49 | 157 | 5.0 | 11.0 | 0.00 | 4.33 | 0.00 | 82 | 1025.5 |
| 20260503035603 | 49 | 164 | 6.0 | 11.0 | 0.00 | 4.33 | 0.00 | 82 | 1025.4 |
| 20260503035045 | 49 | 184 | 5.0 | 9.0 | 0.00 | 4.33 | 0.00 | 82 | 1025.5 |
| 20260503034530 | 49 | 181 | 4.0 | 9.0 | 0.00 | 4.33 | 0.00 | 82 | 1025.5 |
| 20260503034035 | 49 | 187 | 4.0 | 9.0 | 0.00 | 4.33 | 0.00 | 82 | 1025.5 |
| 20260503033539 | 49 | 197 | 5.0 | 12.0 | 0.00 | 4.33 | 0.00 | 82 | 1025.5 |
| 20260503033103 | 49 | 187 | 7.0 | 12.0 | 0.00 | 4.33 | 0.00 | 82 | 1025.4 |
| 20260503032545 | 49 | 182 | 6.0 | 13.0 | 0.00 | 4.33 | 0.00 | 81 | 1025.4 |
| 20260503032029 | 49 | 172 | 7.0 | 13.0 | 0.00 | 4.33 | 0.00 | 81 | 1025.5 |
| 20260503031533 | 49 | 176 | 4.0 | 17.0 | 0.00 | 4.33 | 0.00 | 81 | 1025.5 |
| 20260503031035 | 50 | 165 | 8.0 | 17.0 | 0.00 | 4.33 | 0.00 | 82 | 1025.4 |
| 20260503030556 | 50 | 171 | 6.0 | 13.0 | 0.00 | 7.09 | 1.10 | 83 | 1025.5 |
| 20260503030038 | 50 | 155 | 5.0 | 13.0 | 0.00 | 7.09 | 1.10 | 83 | 1025.4 |
| 20260503025543 | 50 | 169 | 6.0 | 12.0 | 0.00 | 7.09 | 1.10 | 83 | 1025.5 |
| 20260503025028 | 50 | 163 | 6.0 | 12.0 | 0.00 | 7.09 | 1.10 | 84 | 1025.7 |
| 20260503024532 | 50 | 191 | 7.0 | 14.0 | 0.00 | 7.09 | 1.10 | 84 | 1025.7 |
| 20260503024034 | 50 | 146 | 7.0 | 14.0 | 0.00 | 7.09 | 1.10 | 84 | 1025.5 |
| 20260503023536 | 51 | 179 | 7.0 | 13.0 | 0.00 | 7.09 | 1.10 | 84 | 1025.6 |
| 20260503023038 | 51 | 165 | 7.0 | 12.0 | 0.00 | 7.09 | 1.10 | 84 | 1025.5 |
| 20260503022602 | 51 | 172 | 7.0 | 13.0 | 0.00 | 7.09 | 1.10 | 85 | 1025.4 |
| 20260503022026 | 51 | 184 | 6.0 | 14.0 | 0.00 | 7.09 | 1.10 | 84 | 1025.3 |
| 20260503021530 | 51 | 173 | 7.0 | 16.0 | 0.00 | 7.09 | 1.10 | 85 | 1025.3 |
| 20260503021032 | 52 | 171 | 8.0 | 18.0 | 0.00 | 7.09 | 1.10 | 86 | 1025.3 |
| 20260503020534 | 52 | 198 | 9.0 | 18.0 | 0.00 | 1.21 | 1.10 | 87 | 1025.3 |
| 20260503020040 | 52 | 203 | 8.0 | 15.0 | 0.00 | 1.21 | 1.10 | 88 | 1025.3 |
| 20260503015604 | 53 | 188 | 9.0 | 17.0 | 0.00 | 1.21 | 1.10 | 90 | 1025.2 |
| 20260503015047 | 53 | 170 | 10.0 | 21.0 | 0.00 | 1.21 | 1.10 | 91 | 1025.0 |
| 20260503014549 | 54 | 201 | 10.0 | 21.0 | 0.00 | 1.21 | 1.10 | 91 | 1024.9 |
| 20260503014035 | 55 | 187 | 10.0 | 14.0 | 0.00 | 1.21 | 1.10 | 91 | 1024.8 |
| 20260503013541 | 55 | 192 | 10.0 | 14.0 | 0.00 | 1.21 | 1.10 | 91 | 1024.8 |
| 20260503013042 | 55 | 191 | 7.0 | 13.0 | 0.00 | 1.21 | 1.10 | 90 | 1024.8 |
| 20260503012547 | 55 | 191 | 9.0 | 16.0 | 0.00 | 1.21 | 1.10 | 90 | 1024.7 |
| 20260503011550 | 55 | 179 | 11.0 | 18.0 | 0.00 | 1.21 | 1.10 | 90 | 1024.7 |
| 20260503011031 | 55 | 186 | 7.0 | 15.0 | 0.00 | 1.21 | 1.10 | 90 | 1024.7 |
| 20260503010536 | 56 | 160 | 8.0 | 15.0 | 0.00 | 1.21 | 1.10 | 90 | 1024.5 |
| 20260503010043 | 56 | 177 | 6.0 | 13.0 | 0.00 | 1.21 | 1.10 | 89 | 1024.5 |
| 20260503005527 | 56 | 188 | 9.0 | 14.0 | 0.00 | 1.21 | 1.10 | 88 | 1024.4 |
| 20260503005033 | 56 | 160 | 7.0 | 12.0 | 0.00 | 1.21 | 1.10 | 88 | 1024.4 |
| 20260503004557 | 56 | 188 | 8.0 | 16.0 | 0.00 | 1.21 | 1.10 | 90 | 1024.4 |
| 20260503004040 | 56 | 207 | 10.0 | 16.0 | 0.00 | 1.21 | 1.10 | 90 | 1024.4 |
| 20260503003604 | 56 | 163 | 9.0 | 16.0 | 0.00 | 1.21 | 1.10 | 90 | 1024.3 |
| 20260503003031 | 56 | 162 | 8.0 | 14.0 | 0.00 | 1.21 | 1.10 | 91 | 1024.0 |
| 20260503002553 | 56 | 221 | 5.0 | 12.0 | 0.00 | 1.21 | 1.10 | 90 | 1024.0 |
| 20260503002035 | 56 | 185 | 6.0 | 14.0 | 0.00 | 1.21 | 1.10 | 91 | 1023.9 |
| 20260503001601 | 56 | 181 | 9.0 | 17.0 | 0.00 | 1.21 | 1.10 | 90 | 1023.8 |
| 20260503001042 | 56 | 194 | 9.0 | 21.0 | 0.00 | 1.21 | 1.10 | 90 | 1023.9 |
| 20260503000524 | 57 | 200 | 7.0 | 17.0 | 0.00 | 1.22 | 1.10 | 92 | 1023.8 |
| 20260503000030 | 57 | 192 | 9.0 | 16.0 | 0.00 | 1.22 | 1.10 | 92 | 1023.7 |
| 20260502235554 | 57 | 175 | 7.0 | 10.0 | 0.00 | 1.22 | 1.10 | 93 | 1023.7 |
| 20260502235037 | 57 | 179 | 6.0 | 10.0 | 0.00 | 1.22 | 1.10 | 92 | 1023.7 |
| 20260502234539 | 57 | 181 | 5.0 | 10.0 | 0.00 | 1.22 | 1.10 | 92 | 1023.8 |
| 20260502234046 | 57 | 207 | 5.0 | 12.0 | 0.00 | 1.22 | 1.10 | 92 | 1023.7 |
| 20260502233549 | 57 | 173 | 8.0 | 12.0 | 0.00 | 1.22 | 1.10 | 92 | 1023.7 |
| 20260502233032 | 57 | 236 | 6.0 | 10.0 | 0.00 | 1.22 | 1.10 | 92 | 1023.7 |
| 20260502232537 | 57 | 288 | 7.0 | 17.0 | 0.00 | 1.22 | 1.10 | 92 | 1023.7 |
| 20260502232038 | 57 | 210 | 8.0 | 13.0 | 0.00 | 1.22 | 1.10 | 93 | 1023.6 |
| 20260502231559 | 57 | 224 | 9.0 | 15.0 | 0.00 | 1.22 | 1.10 | 93 | 1023.5 |
| 20260502231042 | 57 | 181 | 6.0 | 15.0 | 0.00 | 1.22 | 1.10 | 93 | 1023.4 |
| 20260502230526 | 57 | 164 | 8.0 | 14.0 | 0.00 | 1.22 | 1.10 | 92 | 1023.4 |
| 20260502230032 | 58 | 187 | 8.0 | 13.0 | 0.00 | 1.22 | 1.10 | 92 | 1023.4 |
| 20260502225533 | 58 | 199 | 7.0 | 13.0 | 0.00 | 1.22 | 1.10 | 92 | 1023.4 |
| 20260502225036 | 58 | 206 | 9.0 | 13.0 | 0.00 | 1.22 | 1.10 | 92 | 1023.4 |
| 20260502224542 | 59 | 237 | 7.0 | 18.0 | 0.00 | 1.22 | 1.10 | 91 | 1023.4 |
| 20260502224104 | 59 | 183 | 11.0 | 18.0 | 0.00 | 1.22 | 1.10 | 91 | 1023.3 |
| 20260502223543 | 60 | 224 | 8.0 | 13.0 | 0.00 | 1.22 | 1.10 | 90 | 1023.1 |
| 20260502223048 | 60 | 203 | 7.0 | 11.0 | 0.00 | 1.22 | 1.10 | 89 | 1023.0 |
| 20260502222530 | 60 | 184 | 3.0 | 9.0 | 0.00 | 1.22 | 1.10 | 89 | 1023.0 |
| 20260502222032 | 60 | 241 | 6.0 | 9.0 | 0.00 | 1.22 | 1.10 | 89 | 1023.0 |
| 20260502221535 | 60 | 319 | 3.0 | 7.0 | 0.00 | 1.22 | 1.10 | 89 | 1023.0 |
| 20260502221039 | 60 | 306 | 2.0 | 5.0 | 0.00 | 1.22 | 1.10 | 89 | 1022.9 |
| 20260502220522 | 60 | 314 | 1.0 | 4.0 | 0.00 | 1.22 | 1.10 | 88 | 1022.9 |
| 20260502220050 | 60 | 359 | 0.0 | 6.0 | 0.00 | 1.22 | 1.10 | 88 | 1022.9 |
| 20260502215533 | 60 | 257 | 4.0 | 8.0 | 0.00 | 1.22 | 1.10 | 88 | 1022.9 |
| 20260502215041 | 60 | 198 | 5.0 | 8.0 | 0.00 | 1.22 | 1.10 | 88 | 1022.7 |
| 20260502214526 | 60 | 282 | 1.0 | 6.0 | 0.00 | 1.22 | 1.10 | 88 | 1022.6 |
| 20260502214031 | 60 | 286 | 3.0 | 8.0 | 0.00 | 1.22 | 1.10 | 88 | 1022.6 |
| 20260502213537 | 60 | 283 | 3.0 | 11.0 | 0.00 | 1.22 | 1.10 | 88 | 1022.7 |
| 20260502213039 | 60 | 247 | 5.0 | 11.0 | 0.00 | 1.22 | 1.10 | 87 | 1022.6 |
| 20260502212542 | 60 | 255 | 3.0 | 10.0 | 0.00 | 1.22 | 1.10 | 88 | 1022.5 |
| 20260502212027 | 60 | 244 | 6.0 | 10.0 | 0.00 | 1.22 | 1.10 | 87 | 1022.5 |
| 20260502211532 | 61 | 245 | 5.0 | 9.0 | 0.00 | 1.22 | 1.10 | 87 | 1022.5 |
| 20260502211054 | 61 | 255 | 5.0 | 9.0 | 0.00 | 1.22 | 1.10 | 87 | 1022.5 |
| 20260502210534 | 61 | 226 | 6.0 | 11.0 | 0.00 | 1.22 | 1.10 | 87 | 1022.3 |
| 20260502210040 | 61 | 240 | 5.0 | 13.0 | 0.00 | 1.22 | 1.10 | 87 | 1022.2 |
| 20260502205542 | 61 | 216 | 6.0 | 13.0 | 0.00 | 1.22 | 1.10 | 86 | 1022.2 |
| 20260502205028 | 61 | 249 | 5.0 | 10.0 | 0.00 | 1.22 | 1.10 | 86 | 1022.1 |
| 20260502204531 | 61 | 223 | 4.0 | 16.0 | 0.00 | 1.22 | 1.10 | 86 | 1022.2 |
| 20260502204031 | 62 | 261 | 5.0 | 10.0 | 0.00 | 1.22 | 1.10 | 86 | 1022.0 |
| 20260502203534 | 62 | 285 | 4.0 | 12.0 | 0.00 | 1.22 | 1.10 | 85 | 1022.1 |
| 20260502203035 | 62 | 281 | 6.0 | 12.0 | 0.00 | 1.22 | 1.10 | 85 | 1022.0 |
| 20260502202601 | 62 | 244 | 8.0 | 13.0 | 0.00 | 1.22 | 1.10 | 85 | 1021.9 |
| 20260502202042 | 62 | 290 | 9.0 | 13.0 | 0.00 | 1.22 | 1.10 | 84 | 1021.9 |
| 20260502201527 | 62 | 273 | 5.0 | 10.0 | 0.00 | 1.22 | 1.10 | 84 | 1021.9 |
| 20260502201031 | 62 | 220 | 4.0 | 8.0 | 0.00 | 1.22 | 1.10 | 83 | 1021.9 |
| 20260502200533 | 63 | 282 | 5.0 | 8.0 | 0.00 | 1.22 | 1.10 | 83 | 1021.8 |
| 20260502200038 | 63 | 287 | 5.0 | 12.0 | 0.00 | 1.22 | 1.10 | 83 | 1021.8 |
| 20260502195540 | 63 | 289 | 7.0 | 13.0 | 0.00 | 1.22 | 1.10 | 83 | 1021.8 |
| 20260502195042 | 63 | 226 | 7.0 | 11.0 | 0.00 | 1.22 | 1.10 | 83 | 1021.7 |
| 20260502194529 | 63 | 288 | 5.0 | 12.0 | 0.00 | 1.22 | 1.10 | 83 | 1021.6 |
| 20260502194031 | 63 | 271 | 8.0 | 12.0 | 0.00 | 1.22 | 1.10 | 83 | 1021.5 |
| 20260502193534 | 63 | 268 | 4.0 | 11.0 | 0.00 | 1.22 | 1.10 | 83 | 1021.5 |
| 20260502193033 | 63 | 285 | 7.0 | 11.0 | 0.00 | 1.22 | 1.10 | 82 | 1021.4 |
| 20260502192535 | 63 | 236 | 4.0 | 11.0 | 0.00 | 1.22 | 1.10 | 83 | 1021.4 |
| 20260502192056 | 64 | 248 | 6.0 | 10.0 | 0.00 | 1.22 | 1.10 | 83 | 1021.3 |
| 20260502191537 | 64 | 243 | 5.0 | 10.0 | 0.00 | 1.22 | 1.10 | 83 | 1021.3 |
| 20260502191039 | 64 | 262 | 5.0 | 10.0 | 0.00 | 1.22 | 1.10 | 83 | 1021.2 |
| 20260502190543 | 64 | 265 | 6.0 | 12.0 | 0.00 | 1.22 | 1.10 | 82 | 1021.2 |
| 20260502190027 | 64 | 268 | 5.0 | 16.0 | 0.00 | 1.22 | 1.10 | 83 | 1021.2 |
| 20260502185530 | 64 | 250 | 8.0 | 16.0 | 0.00 | 1.22 | 1.10 | 82 | 1021.1 |
| 20260502185033 | 64 | 273 | 4.0 | 12.0 | 0.00 | 1.22 | 1.10 | 83 | 1021.0 |
| 20260502184537 | 64 | 226 | 6.0 | 12.0 | 0.00 | 1.22 | 1.10 | 83 | 1021.0 |
| 20260502184040 | 64 | 268 | 5.0 | 13.0 | 0.00 | 1.22 | 1.10 | 83 | 1020.9 |
| 20260502183529 | 64 | 288 | 7.0 | 13.0 | 0.00 | 1.22 | 1.10 | 83 | 1021.0 |
| 20260502183031 | 65 | 242 | 7.0 | 12.0 | 0.00 | 1.22 | 1.10 | 82 | 1020.8 |
| 20260502182534 | 65 | 225 | 5.0 | 10.0 | 0.00 | 1.22 | 1.10 | 83 | 1020.8 |
| 20260502182034 | 65 | 285 | 5.0 | 11.0 | 0.00 | 1.22 | 1.10 | 82 | 1020.8 |
| 20260502181537 | 65 | 231 | 6.0 | 11.0 | 0.00 | 1.22 | 1.10 | 82 | 1020.8 |
| 20260502181039 | 65 | 307 | 6.0 | 11.0 | 0.00 | 1.22 | 1.10 | 82 | 1020.8 |
| 20260502180540 | 65 | 261 | 3.0 | 11.0 | 0.00 | 1.22 | 1.10 | 82 | 1020.7 |
| 20260502180104 | 65 | 198 | 7.0 | 11.0 | 0.00 | 1.22 | 1.10 | 81 | 1020.6 |
| 20260502164033 | 66 | 224 | 8.0 | 15.0 | 0.00 | 1.22 | 1.10 | 80 | 1020.6 |
| 20260502163555 | 66 | 262 | 8.0 | 14.0 | 0.00 | 1.22 | 1.10 | 80 | 1020.6 |
| 20260502163035 | 67 | 250 | 7.0 | 17.0 | 0.00 | 1.22 | 1.10 | 80 | 1020.6 |
| 20260502162538 | 67 | 229 | 9.0 | 17.0 | 0.00 | 1.22 | 1.10 | 79 | 1020.6 |
| 20260502162041 | 67 | 252 | 6.0 | 14.0 | 0.00 | 1.22 | 1.10 | 79 | 1020.5 |
| 20260502161528 | 67 | 259 | 7.0 | 14.0 | 0.00 | 1.22 | 1.10 | 78 | 1020.4 |
| 20260502161033 | 68 | 200 | 7.0 | 15.0 | 0.00 | 1.22 | 1.10 | 80 | 1020.4 |
| 20260502160533 | 68 | 224 | 9.0 | 15.0 | 0.00 | 1.22 | 1.10 | 78 | 1020.3 |
| 20260502152055 | 67 | 335 | 3.0 | 7.0 | 0.00 | 1.22 | 1.10 | 82 | 1019.3 |
| 20260502151537 | 67 | 308 | 5.0 | 6.0 | 0.00 | 1.22 | 1.10 | 84 | 1019.3 |
| 20260502151039 | 67 | 285 | 3.0 | 7.0 | 0.00 | 1.22 | 1.10 | 85 | 1019.5 |
| 20260502150528 | 66 | 314 | 4.0 | 9.0 | 0.00 | 1.22 | 1.10 | 86 | 1019.6 |
| 20260502130533 | 64 | 244 | 6.0 | 14.0 | 0.00 | 1.22 | 1.10 | 93 | 1020.0 |
| 20260502123538 | 65 | 305 | 4.0 | 10.0 | 0.00 | 1.22 | 1.10 | 93 | 1019.1 |
| 20260502123101 | 65 | 318 | 0.0 | 9.0 | 0.00 | 1.22 | 1.10 | 94 | 1019.0 |
| 20260502122541 | 65 | 315 | 6.0 | 11.0 | 0.00 | 1.22 | 1.10 | 94 | 1018.9 |
| 20260502122027 | 65 | 304 | 5.0 | 11.0 | 0.00 | 1.22 | 1.10 | 93 | 1018.9 |
| 20260502121532 | 65 | 314 | 5.0 | 10.0 | 0.00 | 1.22 | 1.10 | 93 | 1018.8 |
| 20260502121036 | 65 | 333 | 4.0 | 8.0 | 0.00 | 1.22 | 1.10 | 94 | 1018.7 |
| 20260502120537 | 64 | 311 | 3.0 | 10.0 | 0.00 | 1.22 | 1.10 | 94 | 1018.7 |
| 20260502115525 | 64 | 354 | 4.0 | 10.0 | 0.00 | 1.22 | 1.10 | 93 | 1018.4 |
| 20260502115029 | 64 | 306 | 5.0 | 10.0 | 0.00 | 1.22 | 1.10 | 93 | 1018.4 |
| 20260502114531 | 64 | 360 | 5.0 | 9.0 | 0.00 | 1.22 | 1.10 | 93 | 1018.5 |
| 20260502114033 | 64 | 345 | 5.0 | 11.0 | 0.00 | 1.22 | 1.10 | 93 | 1018.4 |
| 20260502113537 | 64 | 330 | 5.0 | 11.0 | 0.00 | 1.22 | 1.10 | 92 | 1018.4 |
| 20260502113058 | 64 | 328 | 5.0 | 9.0 | 0.00 | 1.22 | 1.10 | 92 | 1018.2 |
| 20260502112541 | 64 | 307 | 4.0 | 10.0 | 0.00 | 1.22 | 1.10 | 93 | 1018.0 |
| 20260502112044 | 64 | 12 | 5.0 | 11.0 | 0.00 | 1.22 | 1.10 | 93 | 1017.8 |
| 20260502111527 | 64 | 20 | 5.0 | 11.0 | 0.00 | 1.22 | 1.10 | 93 | 1017.6 |
| 20260502111031 | 64 | 1 | 4.0 | 9.0 | 0.00 | 1.22 | 1.10 | 93 | 1017.5 |
| 20260502110534 | 64 | 1 | 5.0 | 9.0 | 0.00 | 1.22 | 1.10 | 93 | 1017.4 |
| 20260502110038 | 64 | 13 | 5.0 | 9.0 | 0.00 | 1.22 | 1.10 | 93 | 1017.2 |
| 20260502105540 | 64 | 4 | 6.0 | 10.0 | 0.00 | 1.22 | 1.10 | 93 | 1017.0 |
| 20260502105044 | 64 | 2 | 6.0 | 10.0 | 0.00 | 1.22 | 1.10 | 93 | 1016.9 |
| 20260502104547 | 63 | 6 | 4.0 | 10.0 | 0.00 | 1.22 | 1.10 | 93 | 1016.8 |
| 20260502104029 | 63 | 307 | 6.0 | 10.0 | 0.00 | 1.22 | 1.10 | 93 | 1016.6 |
| 20260502103531 | 63 | 7 | 6.0 | 11.0 | 0.00 | 1.22 | 1.10 | 93 | 1016.3 |
| 20260502103035 | 63 | 289 | 6.0 | 11.0 | 0.00 | 1.22 | 1.10 | 93 | 1016.2 |
| 20260502102542 | 63 | 1 | 8.0 | 11.0 | 0.00 | 1.22 | 1.10 | 93 | 1016.1 |
| 20260502102027 | 63 | 9 | 6.0 | 11.0 | 0.00 | 1.22 | 1.10 | 93 | 1016.1 |
| 20260502101530 | 63 | 25 | 7.0 | 11.0 | 0.00 | 1.22 | 1.10 | 94 | 1016.1 |
| 20260502101034 | 63 | 356 | 5.0 | 11.0 | 0.00 | 1.22 | 1.10 | 94 | 1016.1 |
| 20260502100539 | 63 | 359 | 4.0 | 10.0 | 0.00 | 1.22 | 1.10 | 94 | 1016.0 |
| 20260502091048 | 62 | 359 | 9.0 | 11.0 | 0.00 | 1.22 | 1.10 | 94 | 1015.1 |
| 20260502090531 | 62 | 6 | 6.0 | 12.0 | 0.00 | 1.22 | 1.10 | 94 | 1015.4 |
| 20260502071041 | 62 | 6 | 10.0 | 15.0 | 0.35 | 1.22 | 1.10 | 96 | 1015.0 |
| 20260502070603 | 62 | 11 | 8.0 | 15.0 | 0.43 | 1.22 | 1.10 | 95 | 1015.0 |
| 20260502070046 | 62 | 343 | 10.0 | 18.0 | 0.51 | 1.22 | 1.10 | 95 | 1014.9 |
| 20260502065530 | 62 | 338 | 11.0 | 18.0 | 0.63 | 1.22 | 1.10 | 95 | 1014.6 |
| 20260502065033 | 62 | 349 | 10.0 | 17.0 | 0.71 | 1.22 | 1.10 | 95 | 1014.7 |
| 20260502064537 | 62 | 6 | 9.0 | 18.0 | 0.83 | 1.22 | 1.10 | 95 | 1014.2 |
| 20260502064057 | 62 | 353 | 11.0 | 19.0 | 0.91 | 1.22 | 1.09 | 95 | 1014.8 |
| 20260502063538 | 61 | 359 | 10.0 | 19.0 | 0.98 | 1.21 | 1.09 | 95 | 1015.0 |
| 20260502063041 | 61 | 330 | 10.0 | 17.0 | 1.10 | 1.21 | 1.08 | 95 | 1014.9 |
| 20260502062548 | 61 | 360 | 12.0 | 17.0 | 1.14 | 1.20 | 1.06 | 95 | 1014.5 |
| 20260502062028 | 61 | 359 | 10.0 | 17.0 | 1.22 | 1.20 | 1.04 | 95 | 1015.0 |
| 20260502061035 | 62 | 1 | 9.0 | 16.0 | 1.34 | 1.18 | 1.01 | 95 | 1016.0 |
| 20260502060556 | 62 | 18 | 9.0 | 16.0 | 1.42 | 1.18 | 0.99 | 95 | 1016.6 |
| 20260502060056 | 62 | 11 | 8.0 | 21.0 | 1.46 | 1.17 | 0.97 | 95 | 1016.9 |
| 20260502055538 | 62 | 5 | 9.0 | 21.0 | 1.38 | 1.16 | 0.94 | 95 | 1016.9 |
| 20260502055047 | 62 | 47 | 8.0 | 14.0 | 1.38 | 1.15 | 0.92 | 95 | 1016.9 |
| 20260502054529 | 61 | 13 | 9.0 | 16.0 | 1.34 | 1.14 | 0.89 | 95 | 1016.9 |
| 20260502054032 | 61 | 7 | 11.0 | 16.0 | 1.30 | 1.13 | 0.86 | 95 | 1016.8 |
| 20260502053534 | 62 | 19 | 8.0 | 15.0 | 1.38 | 1.11 | 0.83 | 95 | 1017.0 |
| 20260502053059 | 61 | 1 | 9.0 | 15.0 | 1.46 | 1.10 | 0.80 | 95 | 1017.1 |
| 20260502052542 | 61 | 1 | 9.0 | 14.0 | 1.50 | 1.09 | 0.77 | 95 | 1017.5 |
| 20260502052045 | 61 | 12 | 9.0 | 13.0 | 1.46 | 1.07 | 0.73 | 95 | 1017.3 |
| 20260502051528 | 62 | 13 | 9.0 | 15.0 | 1.50 | 1.06 | 0.70 | 95 | 1017.3 |
| 20260502051032 | 61 | 359 | 9.0 | 13.0 | 1.46 | 1.05 | 0.66 | 95 | 1017.5 |
| 20260502050533 | 62 | 4 | 6.0 | 12.0 | 1.38 | 1.03 | 0.63 | 95 | 1017.4 |
| 20260502050041 | 62 | 9 | 6.0 | 12.0 | 1.26 | 1.02 | 0.60 | 95 | 1017.6 |
| 20260502045547 | 62 | 1 | 7.0 | 12.0 | 1.26 | 1.02 | 0.59 | 95 | 1017.8 |
| 20260502045033 | 62 | 1 | 6.0 | 13.0 | 1.26 | 1.01 | 0.57 | 95 | 1017.6 |
| 20260502044537 | 62 | 13 | 8.0 | 13.0 | 1.26 | 1.00 | 0.55 | 95 | 1017.8 |
| 20260502044041 | 62 | 6 | 7.0 | 12.0 | 1.38 | 1.00 | 0.53 | 95 | 1017.9 |
| 20260502043527 | 62 | 18 | 6.0 | 11.0 | 1.42 | 9.76 | 0.47 | 95 | 1017.8 |
| 20260502043033 | 62 | 57 | 6.0 | 11.0 | 1.34 | 9.61 | 0.43 | 95 | 1017.3 |
| 20260502042534 | 62 | 86 | 5.0 | 11.0 | 1.22 | 9.45 | 0.39 | 95 | 1016.7 |
| 20260502042058 | 62 | 79 | 3.0 | 11.0 | 1.18 | 9.33 | 0.36 | 95 | 1016.6 |
| 20260502041542 | 62 | 22 | 7.0 | 10.0 | 1.06 | 9.17 | 0.32 | 95 | 1016.6 |